This is the latest recevied weather packets stored in our database for station/object WD4IXD-WX. If no packets are shown the sender has not sent any weather packets the latest 10 day(s).
| Time | Temp. | Humidity | Pressure | Rain* | Wind** | Luminosity | Snow |
|---|---|---|---|---|---|---|---|
| 1777389303 | 0° C | 79% | 1017.5 hPa | 0 mm | - | 555 W/m² | - |
| 1777389004 | -0.56° C | 82% | 1017.4 hPa | 0 mm | - | 540 W/m² | - |
| 1777388704 | -0.56° C | 84% | 1017.5 hPa | 0 mm | - | 524 W/m² | - |
| 1777388404 | -1.11° C | 85% | 1017.4 hPa | 0 mm | - | 496 W/m² | - |
| 1777388104 | -1.11° C | 84% | 1017.5 hPa | 0 mm | - | 485 W/m² | - |
| 1777387804 | -1.67° C | 84% | 1017.5 hPa | 0 mm | - | 471 W/m² | - |
| 1777387504 | -1.67° C | 84% | 1017.6 hPa | 0 mm | - | 445 W/m² | - |
| 1777387204 | -1.67° C | 84% | 1017.6 hPa | 0 mm | - | 90 W/m² | - |
| 1777386904 | -1.67° C | 83% | 1017.5 hPa | 0 mm | - | 72 W/m² | - |
| 1777386604 | -1.67° C | 82% | 1017.6 hPa | 0 mm | - | 98 W/m² | - |
| 1777386304 | -1.67° C | 82% | 1017.6 hPa | 0 mm | - | 107 W/m² | - |
| 1777386003 | -1.67° C | 83% | 1017.5 hPa | 0 mm | - | 107 W/m² | - |
| 1777385704 | -1.67° C | 83% | 1017.4 hPa | 0 mm | - | 111 W/m² | - |
| 1777385403 | -1.67° C | 83% | 1017.4 hPa | 0 mm | - | 91 W/m² | - |
| 1777385104 | -1.67° C | 84% | 1017.3 hPa | 0 mm | - | 102 W/m² | - |
| 1777384803 | -1.67° C | 84% | 1017.2 hPa | 0 mm | - | 153 W/m² | - |
| 1777384504 | -1.67° C | 83% | 1017 hPa | 0 mm | - | 292 W/m² | - |
| 1777384204 | -2.22° C | 83% | 1017 hPa | 0 mm | - | 93 W/m² | - |
| 1777383904 | -2.22° C | 86% | 1016.8 hPa | 0 mm | - | 206 W/m² | - |
| 1777383604 | -2.78° C | 88% | 1016.7 hPa | 0 mm | - | 183 W/m² | - |
| 1777383304 | -2.78° C | 88% | 1016.6 hPa | 0 mm | - | 158 W/m² | - |
| 1777383003 | -3.33° C | 89% | 1016.6 hPa | 0 mm | - | 104 W/m² | - |
| 1777382704 | -3.33° C | 89% | 1016.5 hPa | 0 mm | - | 26 W/m² | - |
| 1777382404 | -3.33° C | 89% | 1016.6 hPa | 0 mm | - | 26 W/m² | - |
| 1777382104 | -3.89° C | 89% | 1016.3 hPa | 0 mm | - | 25 W/m² | - |
* Rain latest hour (hover to see other rain measurements)
** Current wind speed in m/s (hover to see current wind gust speed)